Location: Allaines
(49.9632°N, 2.9458°E)
Time: 23:02:17
(UTC+00:00)

X-37B - Pass Details

Date: 23 June 2021
Orbit: 383 x 392 km, 45.0° (Epoch: 01 July)

Event Time Altitude Azimuth Distance (km) Brightness Sun altitude
Exits shadow 02:22:05 10° 183° (S) 1,387 2.9 -9.3°
Drops below altitude 10° 02:22:14 10° 181° (S) 1,415 2.9 -9.3°
Sets 02:25:09 0° 151° (SSE) 2,254 4.2 -9.0°
